Theta_e
330 323 325 326 328 327 322 318 298 300 303 295 295 297 296 303 307 304 304 307 303 310 311 311 310 313 310 310 311 311 313 310 310 304 305 317 335 349 350 350 351 351 352 354 356 357 358 360 361 362 362 361 360 359 359 359 358 357 356 355 355 354 354 353 352 351 351 351 351 350 351 352 352 352 352 352 351 350 351 349 350 350 349 349 349 349 350 350 350 350 350 350 350 350 352 352 349
319 316 315 324 323 316 308 314 298 296 295 293 295 296 298 303 303 302 303 305 305 308 310 310 309 310 313 315 313 315 318 321 320 320 327 332 341 349 351 350 350 350 352 354 355 356 357 359 360 362 362 360 359 358 358 358 358 356 356 355 355 354 353 353 352 351 351 351 350 351 351 352 352 352 351 351 351 350 349 349 349 350 350 350 350 349 349 350 349 348 350 350 350 351 352 352 349
319 314 312 317 318 315 311 305 296 292 292 288 291 295 301 299 300 303 305 306 308 310 310 311 312 311 310 313 312 315 310 325 327 328 328 335 335 341 350 351 352 352 352 353 354 355 356 358 360 361 360 359 358 358 357 357 357 357 356 355 355 354 353 352 352 351 351 351 350 351 351 352 352 352 351 350 349 350 349 349 349 349 349 350 350 349 348 349 348 347 350 350 350 351 351 351 351
315 314 312 313 307 308 303 299 293 292 290 289 291 297 299 300 301 303 306 308 309 309 310 311 312 322 315 313 317 322 318 321 329 328 328 331 335 348 350 351 351 350 350 351 353 355 356 359 360 361 360 359 358 357 356 354 356 356 356 355 355 354 353 352 351 351 351 350 350 350 350 351 352 352 351 350 349 349 350 350 350 349 349 350 349 348 347 346 348 347 350 349 349 351 351 350 350
310 319 313 311 305 300 302 297 295 292 291 291 291 299 301 302 303 305 307 309 309 308 309 309 314 324 325 323 325 313 317 328 333 336 335 340 348 349 349 349 348 346 346 351 354 356 357 359 359 359 359 359 357 353 350 350 351 352 353 355 354 353 353 352 351 351 351 350 349 350 350 351 352 352 351 350 350 350 349 349 349 350 349 349 349 348 347 344 345 347 350 349 349 351 351 350 349
309 308 312 309 302 306 301 295 292 292 297 297 295 299 303 304 304 305 307 308 308 308 309 313 314 318 319 322 326 321 327 319 333 335 337 337 343 343 343 343 341 342 345 351 354 355 356 359 359 359 357 355 349 344 342 344 343 347 351 352 353 353 352 352 351 351 351 350 349 349 349 350 351 352 352 351 350 350 350 349 348 349 349 349 349 347 346 344 345 347 349 349 349 350 350 349 349
309 303 304 303 302 304 293 290 290 292 296 300 301 302 304 305 306 305 304 306 310 311 316 312 319 318 314 320 327 328 333 333 330 331 336 338 341 341 341 341 341 341 345 349 353 354 356 357 354 350 349 347 345 344 344 344 344 343 345 345 350 351 352 351 351 351 350 350 349 349 349 350 351 351 352 351 350 350 350 349 349 349 348 348 347 346 345 346 346 347 348 348 348 348 348 347 346
312 302 301 295 295 299 293 292 292 293 296 300 302 301 303 304 305 301 302 307 306 306 317 324 323 319 318 326 317 327 332 335 335 337 339 340 341 341 341 341 340 342 345 348 352 354 356 353 351 349 347 345 344 343 345 347 347 345 345 344 342 347 350 351 351 350 350 350 349 350 350 351 351 350 350 350 350 350 349 350 349 348 348 348 347 346 347 347 347 348 348 348 347 346 346 345 344
305 302 305 298 294 297 293 293 295 298 298 300 300 303 312 305 305 302 302 305 304 307 311 320 321 314 317 320 319 327 328 333 336 341 339 340 339 340 341 340 339 341 345 347 348 349 349 353 350 348 347 345 346 346 346 348 347 346 346 344 342 340 345 350 350 350 350 350 350 350 350 350 350 350 350 350 350 350 349 348 348 348 347 347 347 347 347 348 348 348 348 347 346 346 345 345 344
304 303 296 295 292 292 290 292 293 297 299 302 302 303 305 305 303 304 302 301 310 314 317 324 324 318 321 316 320 324 326 333 335 337 338 338 338 338 338 339 340 342 343 344 343 345 347 352 350 349 348 348 348 346 347 347 347 346 346 344 343 342 345 351 351 351 351 350 350 350 350 350 350 350 350 350 350 349 348 348 348 347 347 347 347 348 348 348 348 347 347 347 346 346 346 345 345
298 302 300 296 292 288 289 290 292 296 297 299 301 304 305 306 304 302 302 299 314 317 322 325 320 319 321 320 321 331 334 335 335 333 336 336 337 336 336 338 339 340 340 341 341 342 346 346 350 349 349 347 348 347 347 347 346 345 344 343 343 343 343 348 351 351 350 349 350 350 350 350 350 350 350 349 349 348 348 348 347 348 348 348 348 348 348 348 348 347 347 347 347 347 346 346 345
296 297 297 290 289 289 289 289 293 296 297 298 298 301 302 304 303 300 301 299 299 303 307 315 319 324 320 321 322 328 332 334 334 335 335 336 335 336 336 336 337 338 340 339 340 340 343 344 343 350 349 349 348 348 347 346 346 345 344 344 344 343 344 349 351 351 350 350 351 350 349 350 350 350 349 349 348 348 348 348 348 348 348 348 347 347 347 349 349 347 348 348 347 347 346 346 346
298 298 296 292 287 289 291 290 292 296 294 295 296 301 302 302 300 299 299 298 298 299 307 321 326 324 316 319 326 330 329 333 335 335 335 334 334 335 335 335 336 338 339 339 339 340 341 342 343 343 346 349 348 348 347 347 346 345 345 344 344 344 347 349 351 351 349 350 350 350 349 349 350 349 349 349 348 348 347 347 348 348 348 347 347 347 348 349 349 348 348 348 348 347 346 346 345
298 297 294 290 291 291 291 292 292 291 290 295 297 300 302 300 301 300 300 298 298 298 304 320 323 324 319 322 322 324 327 333 334 334 335 334 334 334 333 334 335 336 337 337 337 339 340 342 342 342 343 341 342 346 348 348 347 345 345 345 345 345 347 351 351 349 349 349 349 349 349 349 350 349 349 348 348 348 347 347 348 348 348 348 348 348 348 349 349 348 348 348 348 347 346 346 345
299 298 296 292 290 291 291 289 291 291 291 295 299 299 299 303 300 300 300 297 309 313 318 326 326 317 313 317 315 322 328 333 334 335 334 333 333 332 332 333 333 334 335 336 336 336 337 339 340 340 340 340 340 340 341 346 348 347 346 346 347 348 349 351 351 350 349 349 349 349 349 349 349 349 349 348 348 347 347 347 348 349 347 347 348 348 349 349 348 348 348 348 347 346 346 346 346
300 298 295 291 288 288 290 291 293 291 289 294 299 299 299 299 301 300 301 312 317 323 324 316 326 317 320 319 321 327 331 333 334 334 333 331 331 331 331 331 331 332 333 335 335 335 335 335 336 337 337 337 337 338 338 342 347 348 348 348 349 349 349 350 350 350 350 349 349 349 350 349 349 348 349 347 347 347 348 346 347 349 348 346 347 347 348 349 348 348 348 348 347 346 347 347 347
302 299 291 289 289 289 289 291 292 287 293 295 298 298 296 298 301 305 320 323 317 318 320 323 321 326 321 323 328 330 332 335 336 333 330 328 328 328 329 329 330 329 331 332 333 334 335 335 335 335 336 337 339 338 338 339 345 348 349 349 350 350 350 350 350 350 349 349 348 348 349 348 343 343 341 344 347 345 347 347 347 349 348 348 347 347 349 348 348 348 348 347 347 347 347 348 347
300 293 290 288 289 291 293 294 295 296 293 295 297 297 295 295 299 307 320 319 319 319 320 323 326 326 328 329 330 331 332 331 330 328 326 325 325 325 325 326 327 326 328 329 331 334 335 336 336 335 335 337 338 339 341 342 343 346 345 347 348 349 350 350 348 347 349 345 348 346 344 345 342 340 340 346 344 346 345 347 347 348 348 348 348 347 348 348 348 348 347 347 347 347 348 340 342
295 291 290 289 291 294 297 297 297 295 295 296 298 297 295 297 298 299 310 315 316 316 318 321 321 324 327 329 329 328 329 327 327 326 325 324 323 323 323 323 325 326 326 328 331 333 334 336 337 336 336 336 336 336 338 343 342 342 345 344 347 350 350 350 347 348 344 344 345 343 342 339 339 339 343 344 343 344 343 344 347 347 348 348 349 348 348 348 348 348 348 347 347 347 341 337 338
295 293 288 290 294 295 299 299 299 297 297 296 296 297 296 297 298 299 310 313 314 312 313 316 318 319 322 324 325 326 327 326 325 325 324 324 324 324 324 325 326 327 328 329 331 331 333 335 337 337 336 335 335 336 336 337 338 339 340 343 344 345 347 347 343 338 336 337 339 337 336 337 335 337 345 345 344 336 335 340 344 347 348 348 349 347 348 348 348 349 348 347 347 345 336 338 339
293 293 290 291 294 295 297 299 298 298 298 298 298 297 295 298 299 297 307 311 312 313 316 315 316 319 322 324 324 325 324 324 323 323 324 324 325 325 323 323 324 327 329 330 331 330 331 332 333 334 335 335 335 335 336 336 336 335 335 339 343 343 338 335 334 335 334 334 334 335 334 334 334 334 332 333 334 335 333 331 334 336 337 339 347 340 340 343 345 341 341 344 338 337 336 337 337
296 293 296 297 296 294 299 299 299 296 297 295 295 295 295 298 298 297 295 301 307 313 316 318 320 323 323 324 325 325 324 323 323 322 321 322 322 322 323 322 324 324 328 328 329 328 330 332 333 334 334 334 334 335 336 338 335 334 334 335 335 335 334 333 333 334 335 335 334 335 335 332 333 333 333 333 332 332 333 333 333 334 335 338 344 340 339 340 340 339 340 340 338 338 338 337 336
290 294 294 297 298 296 299 300 298 296 297 295 296 297 297 295 295 296 295 303 313 319 320 321 323 324 325 326 325 323 322 321 321 321 321 321 321 322 323 323 324 325 325 328 330 329 331 332 331 330 330 330 331 334 335 335 334 335 335 335 333 332 333 332 332 333 335 337 337 337 332 332 333 333 332 333 333 333 333 335 335 335 335 336 339 338 336 338 338 339 339 339 339 338 338 337 335
295 292 295 297 297 297 300 299 298 294 294 296 297 296 295 295 293 300 308 318 321 321 322 322 323 325 326 324 324 324 323 322 322 323 323 323 323 323 324 325 326 324 326 327 330 330 331 330 330 329 327 328 328 331 333 332 333 336 339 338 334 338 333 331 331 332 334 335 336 336 335 333 333 333 333 333 333 333 333 335 337 336 336 336 337 337 338 336 336 337 338 337 338 339 338 337 336
294 294 296 297 296 297 297 296 296 295 297 295 295 296 295 295 297 300 314 318 319 320 322 322 323 324 325 324 324 324 324 324 324 325 326 326 326 327 326 326 325 325 326 329 331 330 330 330 327 326 326 327 327 329 330 330 331 332 332 332 333 339 330 330 331 332 333 336 336 336 336 334 334 334 332 332 332 331 332 332 335 335 336 336 336 336 336 335 336 336 336 337 337 337 337 336 336
295 296 297 297 297 297 296 295 294 295 297 296 295 295 293 294 297 298 316 317 319 320 320 321 323 323 324 324 324 324 324 324 325 325 325 325 326 325 324 325 325 325 327 331 331 330 329 327 326 326 326 326 327 328 328 329 330 331 332 332 333 335 330 331 332 331 332 334 334 336 337 334 334 334 333 332 330 330 332 332 333 334 335 336 336 336 336 336 336 335 335 335 336 337 337 337 337
295 297 297 296 296 295 297 295 295 296 297 294 294 293 294 295 297 290 311 318 319 319 320 322 323 323 324 324 324 324 324 324 324 325 325 324 324 323 323 324 324 325 328 328 331 330 330 327 326 326 326 328 326 326 327 329 332 332 334 333 331 330 331 333 332 332 334 334 332 332 334 336 334 333 333 333 332 331 330 332 332 333 333 334 337 336 336 336 336 337 336 335 335 336 337 337 338
297 297 297 295 294 295 295 295 295 294 296 293 294 292 293 294 296 289 307 319 320 318 320 321 322 323 324 324 324 325 324 324 324 324 322 322 322 322 321 323 324 325 328 329 330 330 328 325 325 325 325 327 327 326 328 328 329 332 332 332 332 332 332 331 332 335 338 335 333 333 333 335 337 334 334 333 332 331 329 330 331 332 332 333 336 337 336 337 336 336 337 337 337 337 336 335 335
296 295 292 291 292 293 293 295 295 296 295 295 294 293 292 293 291 294 313 320 320 319 318 320 321 323 323 324 324 323 323 323 323 322 323 323 323 324 323 323 325 325 326 328 330 329 327 325 324 323 323 323 324 324 324 325 326 328 329 330 332 332 330 332 334 336 335 336 335 335 335 337 338 335 335 334 335 333 331 330 332 333 334 336 336 335 335 335 334 333 332 333 332 333 334 332 331
296 294 294 290 288 289 293 294 296 294 296 295 295 284 284 289 292 293 315 318 319 318 317 319 321 321 322 322 323 322 323 322 321 322 323 324 324 324 323 324 327 326 329 332 332 328 328 328 327 325 324 322 323 323 324 325 327 329 330 329 331 329 332 335 338 338 338 336 336 334 337 338 338 339 337 336 336 335 335 333 335 336 337 337 335 335 333 333 333 332 332 332 334 330 326 326 325
290 292 289 288 285 285 291 295 294 294 295 294 296 285 284 287 291 294 301 318 317 315 316 317 319 320 320 321 321 321 322 322 322 323 323 324 324 325 325 325 326 327 331 330 328 326 326 325 326 325 324 322 324 323 324 326 327 328 327 328 330 331 333 335 336 337 335 333 334 336 336 337 337 335 338 337 337 336 335 335 336 336 337 337 336 335 333 334 333 332 332 331 330 329 328 329 326
289 288 282 283 285 286 292 295 295 292 295 295 294 286 288 289 292 293 299 315 316 313 314 316 317 318 319 320 321 321 321 322 323 323 323 324 324 324 325 325 326 326 326 326 328 326 325 323 324 321 322 321 321 323 323 327 327 327 327 330 327 328 330 332 334 336 336 333 335 334 336 339 338 336 337 337 337 336 336 335 336 337 338 337 337 336 335 333 332 331 331 332 330 330 330 329 328
285 287 282 284 284 285 288 293 294 295 295 294 294 284 287 290 292 294 299 306 314 313 313 314 316 317 319 319 320 320 320 321 322 322 323 324 324 325 325 325 326 326 326 327 326 324 324 325 326 321 320 321 322 324 323 324 326 326 324 324 326 327 327 329 333 334 336 337 337 336 336 338 338 337 337 336 334 336 336 336 336 337 338 336 335 333 331 331 331 330 329 332 330 329 330 330 329
282 285 284 285 285 285 285 290 293 294 294 291 293 290 288 291 294 295 297 307 313 312 313 314 315 316 318 319 320 320 320 320 320 321 322 324 324 325 325 330 327 327 328 326 325 325 324 324 323 323 322 323 323 324 323 323 325 326 326 326 330 327 327 329 329 330 333 335 336 336 337 338 337 337 337 337 336 334 336 336 336 336 337 337 336 334 332 331 330 329 328 327 330 327 327 328 327
282 283 284 285 286 287 288 286 290 292 294 292 290 290 289 291 293 295 299 312 312 312 313 313 314 315 317 319 319 319 320 319 320 322 323 324 325 325 327 328 328 328 328 326 326 325 325 324 325 326 325 323 323 323 323 323 325 326 327 327 327 328 330 329 329 328 329 331 333 336 337 338 338 337 337 336 336 338 337 336 336 336 336 337 337 336 334 332 331 329 328 328 330 331 330 330 330
288 288 286 286 284 287 286 290 294 294 291 290 289 288 290 291 292 294 297 309 311 312 313 313 314 315 316 318 319 319 319 320 322 323 324 325 325 326 326 327 328 328 327 327 326 326 325 324 324 325 324 325 324 323 324 324 325 327 326 323 322 328 328 331 329 329 329 329 332 333 334 337 337 336 336 336 335 337 336 336 336 336 336 336 336 336 336 335 333 332 331 330 330 330 332 330 329
290 289 289 286 287 287 290 292 295 295 291 290 289 290 291 291 293 294 294 300 310 311 311 312 313 314 316 317 318 319 319 320 323 323 324 325 326 326 326 326 325 325 325 325 325 325 326 326 326 325 324 323 325 322 320 321 319 318 316 318 319 319 323 325 325 328 328 330 331 330 331 334 335 335 334 332 332 334 337 336 336 336 336 336 336 336 335 334 334 333 331 330 330 328 328 329 328
290 289 287 286 288 285 290 292 295 294 291 288 290 291 291 292 293 293 296 305 307 309 310 311 312 314 315 316 317 318 319 321 323 322 324 325 326 325 325 324 325 322 322 323 323 323 323 322 323 320 318 318 317 317 318 315 314 315 313 313 315 317 315 314 315 319 323 326 326 324 324 325 326 328 331 332 330 330 333 334 335 335 335 335 336 336 335 336 335 334 333 331 330 329 327 327 328
290 288 286 286 287 288 291 292 294 295 294 287 289 289 290 292 293 294 295 303 307 311 312 312 312 312 313 315 316 317 318 320 321 322 323 325 325 324 324 323 322 322 321 321 320 319 318 317 316 316 315 315 314 316 314 314 315 316 314 314 312 316 319 318 316 320 321 318 319 321 321 320 322 323 325 326 325 327 328 331 332 334 334 335 334 332 332 333 332 331 331 332 331 328 330 330 327
288 287 287 285 287 287 283 290 293 293 294 289 290 289 290 292 293 295 296 299 304 309 313 313 313 311 312 313 315 316 318 319 320 321 322 324 324 322 322 321 319 319 319 318 317 317 316 317 313 313 314 314 314 317 318 314 315 314 314 315 315 313 315 322 316 315 315 317 317 317 319 319 319 321 321 322 324 322 324 324 327 331 334 334 332 330 330 328 326 329 330 332 333 330 330 330 331
288 290 289 287 288 289 288 286 291 293 293 294 291 290 287 289 291 293 295 297 298 301 309 312 313 313 314 315 316 318 318 319 319 320 321 322 320 320 320 320 318 317 316 315 315 315 316 314 313 313 313 313 313 320 315 315 316 313 313 312 314 313 313 311 310 310 312 318 316 314 315 320 320 320 321 321 323 323 323 323 324 325 328 331 333 331 330 329 329 328 329 329 331 330 330 329 328
286 289 291 291 290 289 290 292 290 285 284 289 291 282 282 287 290 292 294 294 295 298 301 307 310 311 313 313 314 317 320 321 320 320 321 321 320 319 319 317 316 315 314 314 313 314 313 313 313 312 312 312 312 312 314 315 314 311 309 309 307 307 307 306 307 309 310 311 312 314 316 318 320 320 320 320 322 325 322 321 322 323 323 325 328 329 332 332 330 329 329 330 331 331 329 329 328
287 287 292 292 292 292 291 291 289 281 281 286 293 284 278 283 289 291 292 294 294 295 296 303 309 311 312 312 313 316 318 319 320 321 321 319 318 317 316 315 315 313 313 313 313 313 313 313 312 312 312 311 313 313 315 316 311 310 308 308 307 307 306 308 309 310 312 314 314 314 315 317 320 321 321 321 321 321 322 320 321 322 323 323 326 324 324 326 328 329 331 330 330 330 328 327 329
285 291 294 293 292 292 292 291 288 284 288 291 290 288 283 280 284 290 293 293 294 295 297 304 308 311 312 312 313 315 318 318 319 319 319 318 317 317 315 314 313 313 312 312 312 312 312 313 312 312 313 315 313 314 313 313 311 309 310 310 312 307 307 308 310 311 313 318 311 313 315 316 318 319 319 320 321 322 323 321 319 320 321 321 325 321 320 321 321 322 323 324 326 328 329 328 328
290 293 294 294 293 293 292 289 287 289 287 282 285 290 283 279 284 291 294 292 293 294 295 304 308 310 311 312 313 314 317 318 319 318 317 317 316 316 315 313 313 312 312 312 312 311 312 313 314 313 313 314 312 315 314 313 313 310 310 309 310 310 309 311 314 313 311 312 311 312 313 314 316 317 318 319 319 320 322 321 320 318 318 318 325 321 320 319 319 319 319 320 320 321 324 326 326
292 294 295 295 294 294 291 287 289 287 284 280 284 290 282 277 283 288 290 292 293 295 296 304 308 310 311 312 313 314 315 317 318 318 318 316 316 315 313 312 312 312 312 313 312 312 312 313 314 313 312 311 312 313 313 312 312 313 308 308 308 308 309 307 308 308 308 309 309 310 311 313 314 314 316 316 316 318 319 321 320 319 318 322 324 318 317 317 317 318 318 318 319 318 320 321 322
296 294 291 290 290 290 290 288 286 284 280 278 286 291 288 280 282 289 290 293 294 295 296 300 309 310 311 312 313 314 314 316 317 317 316 315 315 313 312 311 311 311 311 312 311 312 312 312 313 311 311 312 314 312 311 312 311 309 308 308 308 308 308 306 306 306 307 308 308 308 310 312 312 313 314 314 315 316 318 320 318 317 318 320 319 316 315 315 317 317 317 317 317 318 318 319 319
294 290 288 287 287 288 285 283 285 280 274 282 289 291 294 281 280 289 295 297 297 296 296 299 307 309 311 311 313 314 315 315 315 315 314 313 311 311 311 311 311 311 311 311 311 311 312 312 312 311 311 312 312 312 311 311 311 310 309 309 308 308 308 308 306 306 307 307 308 308 309 310 310 312 312 313 313 314 317 315 316 314 316 315 315 315 315 315 316 316 316 316 316 316 316 317 315
292 289 287 283 279 280 277 280 278 278 276 284 291 292 286 282 285 293 296 297 299 298 299 300 307 310 310 312 312 314 314 314 314 313 313 311 311 310 310 310 310 310 311 311 311 311 311 312 311 311 311 311 312 312 311 311 310 310 309 309 309 310 308 308 308 307 307 307 307 308 308 308 308 310 310 311 312 313 316 314 314 314 313 314 314 313 314 314 314 315 314 314 314 313 313 313 313
294 290 284 281 278 276 275 278 280 278 282 288 290 291 285 286 291 296 297 298 300 301 302 302 306 310 311 312 312 313 313 313 313 313 312 311 311 311 311 310 311 311 311 311 312 312 312 312 311 311 311 312 312 312 312 311 310 310 310 310 310 311 309 308 308 308 308 307 309 309 309 308 309 309 309 310 312 314 315 314 315 314 313 312 313 313 314 314 315 315 314 313 313 313 313 313 313
293 294 292 285 280 279 277 278 275 277 278 284 291 287 281 283 288 300 300 300 301 303 304 303 305 307 312 313 313 312 312 312 313 312 311 311 311 311 311 311 311 311 311 312 312 311 312 311 311 312 311 312 312 312 311 311 311 311 311 311 311 310 310 309 308 310 307 309 308 308 308 308 309 309 310 311 315 313 313 315 315 314 312 312 312 312 314 313 313 313 313 313 314 313 313 314 314
292 294 292 286 285 285 281 278 279 280 280 279 283 284 287 287 296 302 302 301 301 303 304 305 303 304 311 311 311 311 311 312 312 311 310 310 311 311 311 311 312 312 312 312 312 312 312 311 312 312 312 312 312 314 311 311 311 312 311 310 311 313 314 311 312 313 311 309 308 308 308 308 309 309 310 311 311 312 313 313 312 311 312 312 313 313 312 312 312 311 311 311 311 315 312 311 311
291 293 287 290 295 290 283 282 285 283 281 278 281 286 288 292 292 297 299 300 302 302 303 303 303 304 309 310 310 310 311 311 311 311 310 310 310 311 312 312 312 312 312 312 312 313 312 312 312 312 312 312 312 313 311 311 312 311 311 310 310 311 310 308 308 308 308 308 309 307 308 308 309 309 311 312 312 311 311 311 312 312 312 312 312 312 312 311 311 311 310 310 310 311 311 309 310
296 288 292 297 297 294 286 281 281 279 277 278 285 282 283 286 282 295 296 296 297 300 303 303 304 303 307 308 310 309 310 311 311 311 311 311 311 311 311 312 312 312 313 312 313 313 313 313 313 312 312 311 312 313 312 311 311 310 310 310 310 310 309 309 308 308 308 308 307 308 308 308 308 309 311 313 312 311 311 315 311 311 311 311 312 311 311 310 310 310 310 309 310 309 308 309 309
299 295 304 291 281 285 286 283 277 275 274 275 280 285 285 286 285 291 293 296 295 298 301 303 302 301 304 307 309 309 310 310 310 311 310 311 310 311 311 311 313 313 314 313 314 314 314 313 314 313 312 312 312 313 312 313 312 311 311 311 310 309 309 308 309 309 307 307 308 306 306 307 306 308 311 309 308 309 309 310 310 310 311 311 311 310 311 310 309 308 309 309 308 307 307 306 307
302 302 298 300 292 285 283 281 282 280 276 275 276 282 281 290 288 293 298 300 300 297 300 303 303 303 304 307 309 308 308 309 310 311 311 311 311 311 311 311 312 313 313 313 313 314 313 313 314 313 313 313 312 313 314 312 311 311 312 310 310 310 310 309 309 307 306 306 307 306 306 306 306 309 308 308 307 307 308 308 309 309 309 308 308 308 308 308 308 308 307 307 307 307 307 306 307
291 290 288 292 290 294 291 288 285 281 278 275 275 275 281 290 297 297 296 297 299 300 301 303 303 303 304 305 307 308 309 309 310 311 311 311 311 311 312 312 313 314 315 314 313 313 314 313 314 314 312 312 312 312 313 312 311 310 311 310 309 309 309 309 309 307 306 305 305 310 308 307 309 306 306 306 307 307 307 306 305 306 305 305 305 305 306 306 306 306 306 306 307 307 306 306 308
291 288 287 290 286 284 281 280 289 286 282 279 277 276 282 292 300 298 297 298 300 301 303 302 302 302 302 303 305 307 308 310 311 312 312 311 311 311 312 313 313 313 314 313 314 314 314 313 314 313 313 312 312 312 312 312 310 310 309 309 309 308 308 308 307 307 307 305 305 306 306 308 305 306 307 306 305 304 304 304 304 303 303 304 304 304 304 305 305 305 305 307 306 304 304 304 304
Wind_Speed
4 1 0 1 1 0 2 1 1 2 1 3 2 1 4 3 4 4 10 8 4 3 3 3 1 1 4 2 9 2 3 2 3 4 3 2 2 11 11 12 11 10 11 8 8 8 9 11 12 12 13 13 13 13 13 12 13 13 13 14 15 14 15 15 14 13 14 14 13 13 13 12 12 12 12 11 11 11 11 12 12 13 13 14 14 14 14 14 14 14 14 14 14 14 13 12 12
1 2 4 1 1 1 1 0 1 2 2 2 6 1 5 5 2 9 11 11 5 3 4 2 3 1 7 10 7 8 8 7 2 6 3 4 10 8 11 12 11 11 8 6 6 6 7 10 14 14 15 15 13 13 13 13 13 13 13 14 14 14 14 15 15 13 13 13 13 12 12 12 11 11 11 11 10 10 10 11 12 13 13 14 14 14 14 13 14 14 13 13 13 12 11 10 11
1 3 5 4 2 1 1 1 1 1 1 4 6 5 3 5 10 13 13 12 10 11 1 1 3 3 6 11 9 6 1 4 8 7 4 3 10 4 10 10 11 11 10 6 6 5 4 6 12 14 15 16 15 14 13 13 13 13 13 13 14 13 14 14 14 13 13 12 12 12 12 12 11 11 10 10 9 9 11 11 11 12 12 13 14 14 13 13 13 14 13 13 13 12 10 9 10
3 2 3 2 2 2 1 1 2 3 2 5 7 5 6 9 14 13 13 14 14 3 1 2 8 6 11 11 4 13 6 3 4 2 3 4 4 8 10 12 10 9 8 7 7 7 6 8 10 13 15 16 16 15 13 13 13 13 13 13 13 13 13 13 13 13 13 12 12 11 12 12 11 11 11 10 10 10 10 10 12 12 12 12 13 13 12 11 12 14 13 13 12 11 10 8 9
2 0 1 2 2 1 1 2 2 3 5 3 5 6 7 10 13 13 10 15 6 6 3 8 8 6 8 6 5 2 1 3 12 9 6 7 8 9 10 10 10 8 8 9 9 9 9 13 13 12 14 16 16 14 10 8 8 10 12 12 13 13 12 13 13 13 12 12 11 11 11 11 11 11 11 11 10 8 8 9 10 11 12 11 12 12 12 10 11 13 12 12 12 10 9 7 7
3 3 1 3 1 1 1 1 2 3 7 5 4 8 10 11 11 11 9 4 2 3 4 12 8 4 6 5 3 1 5 2 2 6 6 4 10 10 11 9 9 6 5 6 8 7 9 17 15 15 15 16 19 19 14 9 6 3 8 10 11 11 11 12 12 12 12 11 11 11 10 10 10 10 11 11 11 11 9 9 10 11 11 12 12 12 11 10 11 13 12 12 11 10 8 6 6
0 3 1 2 2 1 3 2 5 7 11 8 11 12 13 13 12 7 3 7 2 18 16 12 11 15 10 1 6 6 8 3 3 3 6 5 10 9 8 8 8 7 5 6 6 6 10 16 19 20 18 18 18 20 21 20 14 9 3 3 6 9 9 10 11 11 12 11 11 10 10 9 9 10 10 10 11 11 12 11 10 9 10 10 11 11 12 13 12 12 12 11 10 9 7 5 4
1 2 1 1 1 1 1 4 6 7 7 4 8 10 14 14 12 4 10 2 2 3 13 8 12 16 5 5 7 5 9 8 8 5 6 8 9 7 6 7 10 7 7 6 6 6 13 17 18 18 20 21 19 18 18 19 18 15 13 7 6 1 7 7 8 10 10 10 10 9 9 9 9 10 10 10 10 11 11 11 10 9 8 9 10 11 11 12 12 12 11 10 9 8 7 4 3
2 2 1 3 1 0 1 7 9 4 7 6 9 11 15 15 11 7 9 3 5 9 18 8 15 17 3 9 6 3 4 7 6 10 10 9 9 7 5 5 8 7 8 8 7 7 7 14 17 19 21 24 24 24 23 23 22 20 18 16 10 4 3 6 7 7 8 8 8 7 8 9 9 9 10 10 10 10 10 11 11 11 10 9 9 9 10 11 11 11 10 10 9 8 7 4 2
0 2 1 2 3 3 4 5 1 7 7 9 11 16 16 15 7 6 6 10 16 19 13 7 11 16 7 14 3 4 2 5 6 12 10 9 7 7 8 7 5 9 8 6 5 5 4 13 18 20 21 23 23 24 25 22 23 21 19 19 16 14 5 5 6 7 7 7 6 7 8 8 8 8 9 10 10 10 10 10 11 12 11 10 9 9 10 10 9 10 10 9 8 7 6 4 2
1 1 2 0 2 5 6 7 7 7 6 5 9 16 21 17 5 2 1 10 18 16 13 20 13 10 7 4 1 3 7 9 8 6 6 6 6 8 7 5 5 5 8 6 4 3 4 6 19 21 23 23 22 22 22 21 23 23 21 19 16 13 11 6 8 7 8 7 6 7 7 7 7 8 8 9 10 10 11 11 11 11 11 11 10 9 9 9 9 8 9 8 8 6 5 4 3
1 0 1 2 5 5 5 3 6 8 6 7 9 10 7 9 8 3 1 11 5 14 13 8 8 12 12 4 1 2 6 7 6 4 4 4 5 7 7 5 6 7 6 6 5 5 3 3 2 14 19 19 19 19 19 21 23 24 24 23 19 14 11 8 8 8 8 8 6 7 8 7 7 8 8 9 9 9 10 11 11 11 11 11 11 10 10 10 9 8 8 8 7 6 6 5 4
1 0 1 0 4 1 4 4 6 5 4 8 4 5 4 11 8 7 4 5 3 11 6 16 23 5 6 3 2 1 2 3 2 2 4 5 6 5 6 7 7 8 7 6 5 6 6 4 4 3 6 18 19 20 21 22 22 22 21 20 18 15 14 13 10 9 9 9 7 7 8 7 8 8 8 9 9 9 10 10 10 10 10 9 9 10 10 10 9 9 8 7 7 6 6 5 4
3 4 3 3 1 3 5 6 3 4 4 7 3 4 4 2 2 4 7 10 7 8 8 11 10 17 11 7 3 2 1 2 3 3 3 6 5 5 7 6 9 8 7 6 6 5 5 5 4 4 4 3 1 13 17 20 22 22 23 21 18 15 11 12 12 11 10 10 9 8 9 8 8 8 8 9 9 9 9 9 9 7 8 8 8 9 9 9 9 8 8 7 6 6 5 5 5
3 2 1 2 5 3 3 4 1 1 7 2 5 4 3 3 4 6 7 8 11 5 9 9 7 9 6 9 3 6 5 5 4 4 5 5 4 6 8 8 8 8 7 7 5 5 4 5 5 5 5 4 3 1 1 10 19 20 20 20 18 15 13 13 12 11 11 11 11 10 9 9 8 8 8 9 9 9 9 10 8 6 8 9 8 8 8 7 8 7 7 6 6 5 5 4 3
4 2 2 3 7 4 3 1 1 4 3 1 3 3 7 3 3 5 5 12 2 9 9 4 5 4 11 6 7 9 8 7 5 5 5 5 5 7 8 8 8 7 6 6 6 5 4 5 4 5 5 4 3 3 1 2 12 17 18 18 18 16 14 13 13 12 12 11 11 10 10 7 7 5 9 6 8 8 9 7 8 5 7 7 8 8 7 7 6 6 6 5 4 4 3 3 4
1 2 2 3 9 3 2 1 1 2 5 3 4 6 3 2 2 11 9 16 19 10 15 7 8 6 10 6 12 11 9 10 9 5 3 2 4 7 6 6 6 6 5 5 4 4 5 5 4 4 5 5 4 3 3 1 6 13 13 16 17 17 15 14 13 13 11 10 9 9 9 4 3 2 2 1 5 3 7 8 7 6 6 6 5 5 7 5 4 5 4 3 3 3 3 3 4
2 2 3 7 5 6 3 3 2 3 4 4 3 2 5 3 2 7 18 17 16 14 16 11 13 12 11 11 11 11 10 8 7 3 2 5 3 5 6 4 5 5 4 4 4 4 5 5 5 5 5 4 3 3 1 1 2 6 4 8 9 11 12 11 9 5 7 3 9 4 2 3 3 1 1 1 1 2 5 9 7 7 6 6 6 7 6 5 5 4 4 4 3 3 3 1 3
3 1 2 8 3 5 2 1 3 3 7 3 0 1 4 1 0 2 11 11 16 15 9 12 14 11 10 10 9 8 7 4 3 3 5 7 6 7 4 3 5 4 5 4 4 5 3 4 4 5 5 4 4 3 2 1 1 0 0 1 6 10 9 8 5 5 4 3 5 6 3 3 3 2 4 4 4 8 7 3 7 8 8 7 7 7 6 6 6 5 6 5 4 3 1 1 4
4 3 6 6 3 4 1 3 5 3 2 2 3 3 3 1 1 4 13 11 18 17 11 7 13 11 8 7 7 6 5 4 3 4 8 8 6 6 5 5 5 6 4 3 4 3 4 4 5 4 4 4 4 3 2 3 2 2 1 1 2 5 6 5 5 6 4 4 6 5 4 4 4 3 6 6 4 2 3 4 4 5 9 8 8 6 6 6 7 6 6 6 3 1 1 2 4
3 3 6 4 4 4 5 3 3 7 2 1 0 1 4 1 0 6 13 13 8 10 15 19 15 15 11 8 7 5 5 6 5 5 8 9 8 4 4 4 4 4 3 2 3 4 4 4 4 4 4 3 4 3 3 3 2 4 3 1 3 5 7 6 6 6 5 5 5 5 4 4 4 4 3 2 3 2 0 1 1 1 1 1 7 3 2 3 4 3 3 3 3 3 3 3 3
2 5 7 8 5 4 11 9 5 5 2 4 3 7 3 4 2 3 5 14 9 11 7 14 17 15 15 12 8 5 6 6 5 5 5 7 7 6 3 3 3 2 3 4 4 3 4 4 4 3 4 3 3 4 3 4 5 4 4 3 5 4 6 7 5 5 5 5 4 4 4 4 4 4 3 3 2 2 2 1 1 1 2 2 1 3 3 4 3 3 3 3 4 3 4 4 4
5 7 6 8 7 5 5 1 4 6 1 3 1 1 1 4 2 3 6 12 6 9 15 15 15 14 13 11 11 9 7 6 6 6 5 6 6 5 4 3 3 3 3 4 4 3 5 4 4 4 4 3 3 3 4 3 4 4 4 4 5 6 6 6 3 4 4 5 5 5 5 5 4 3 2 3 3 3 2 1 1 2 3 1 0 2 3 3 3 4 4 4 3 3 4 4 4
8 9 7 9 6 9 11 10 2 3 7 1 3 1 4 4 3 4 10 10 15 13 14 15 14 14 13 13 9 11 9 8 7 5 4 6 5 5 4 4 4 3 4 4 5 5 5 5 4 5 3 3 3 3 3 2 3 3 2 5 6 6 6 5 2 3 3 4 4 4 4 4 5 3 3 4 4 3 1 0 2 3 3 2 1 1 2 3 3 2 3 4 4 4 5 5 5
9 11 10 9 5 8 7 4 6 3 2 3 5 2 1 1 0 5 10 15 14 13 13 14 14 12 9 12 12 10 10 8 8 5 3 4 4 4 4 5 4 4 4 5 5 6 5 3 4 5 4 4 4 4 4 4 3 3 4 5 4 5 5 4 4 3 4 3 3 4 5 5 5 5 5 5 4 3 2 2 2 3 4 3 2 2 2 2 3 3 3 4 4 5 5 6 5
8 15 9 5 5 3 1 5 6 6 3 2 3 0 2 3 4 6 14 12 13 14 13 15 14 13 12 11 12 10 11 10 9 8 7 5 6 7 4 4 4 4 4 5 6 6 4 4 5 4 3 4 4 4 3 4 3 4 4 4 3 5 5 5 3 2 2 2 3 3 4 5 5 5 5 4 5 4 3 3 2 4 4 3 2 4 4 4 4 3 4 4 4 5 6 6 5
4 12 14 6 5 3 2 4 5 2 3 4 3 4 1 2 4 1 9 15 14 14 13 12 14 13 11 10 9 7 10 10 10 9 9 7 6 6 4 4 4 3 4 4 5 6 4 3 4 3 4 4 3 4 3 4 3 4 4 4 5 4 3 4 3 3 2 1 1 1 2 3 4 4 5 5 2 3 2 2 4 4 4 4 3 5 4 4 4 5 5 5 6 6 7 5 5
8 6 0 2 4 3 1 4 5 4 1 5 7 5 3 1 1 4 15 15 17 17 14 13 13 13 12 11 10 7 7 7 7 9 12 9 6 5 4 5 4 3 3 3 5 6 5 3 4 3 3 4 5 4 3 4 4 4 4 4 5 6 6 4 3 2 2 1 1 1 1 1 3 2 2 3 3 3 2 2 2 4 4 4 4 5 4 5 5 6 6 6 6 6 6 6 5
5 1 2 2 4 4 4 2 2 1 1 5 5 2 1 0 4 4 21 16 16 17 15 14 14 13 12 10 9 7 8 8 7 8 9 8 6 5 6 4 5 4 1 2 4 5 5 3 4 3 3 3 5 5 5 4 5 5 5 4 5 6 4 2 1 3 1 1 1 1 1 1 2 4 1 1 2 3 2 1 2 3 1 1 2 3 4 4 4 5 5 4 5 6 6 6 5
3 1 0 5 6 6 8 2 2 2 2 6 5 2 6 6 8 3 21 16 15 15 14 13 13 13 11 10 9 8 7 8 7 8 8 8 7 6 6 4 5 4 3 3 3 3 3 3 3 4 3 4 4 4 4 5 5 5 5 5 5 5 3 2 3 3 3 2 3 4 2 1 1 2 4 3 2 2 2 1 3 2 1 0 2 3 3 3 4 3 4 2 3 2 3 3 3
3 2 3 0 2 7 4 1 1 3 4 6 5 4 7 7 10 4 14 21 19 17 15 14 13 11 10 8 8 9 8 7 9 9 8 8 7 6 6 5 5 4 4 3 4 3 3 3 2 3 3 4 4 3 4 5 4 5 5 5 5 5 4 3 4 4 4 3 2 1 2 1 1 3 0 2 3 3 3 4 4 3 2 2 3 4 4 4 4 4 3 3 3 4 3 3 2
2 2 3 3 2 8 8 2 2 6 2 6 5 3 10 7 8 5 13 18 19 17 14 13 12 11 11 9 9 9 8 7 8 10 10 9 8 7 7 6 5 5 5 4 5 4 5 3 3 2 2 4 4 4 3 4 5 5 5 5 5 4 5 5 4 4 3 1 2 2 1 0 1 1 1 1 1 2 3 3 3 2 3 3 4 3 3 4 4 3 2 1 2 2 1 1 3
4 0 3 3 1 5 7 7 6 10 5 2 10 7 2 4 9 7 13 19 17 16 14 12 13 13 11 10 9 8 9 7 7 9 10 10 7 7 7 7 6 6 5 5 4 4 5 5 5 4 2 2 4 4 3 3 3 4 3 4 4 4 5 5 6 2 3 1 1 1 1 1 0 1 1 2 3 3 2 3 3 4 4 4 4 4 4 4 3 2 2 1 1 2 2 4 3
5 2 2 2 4 4 5 8 3 7 9 6 8 7 4 2 3 6 6 15 16 17 15 14 13 12 11 10 9 10 9 10 10 9 10 9 8 6 6 7 7 6 5 5 5 6 5 5 4 4 3 3 3 4 4 3 2 3 3 3 2 3 2 1 2 4 5 3 1 1 0 1 1 2 1 1 2 3 4 3 3 3 3 3 3 3 4 3 3 2 3 2 2 2 2 3 4
2 3 3 7 4 7 11 4 4 5 11 13 6 7 5 4 4 7 13 19 18 17 16 16 14 12 11 10 10 11 11 11 10 9 10 10 9 7 6 7 7 6 6 5 5 5 4 4 3 3 4 3 3 3 2 2 2 2 2 2 2 1 1 1 1 1 2 3 3 1 0 0 1 1 0 0 2 4 4 3 3 3 2 3 3 3 3 2 2 2 3 3 3 3 3 3 4
7 7 5 2 5 8 6 8 11 8 8 10 8 9 8 5 5 5 8 15 19 17 14 13 13 12 12 11 11 11 10 10 8 10 10 9 9 8 6 6 6 6 6 5 5 5 5 3 3 3 3 4 3 3 2 2 2 3 4 3 2 1 1 1 1 0 1 1 1 2 1 1 2 3 2 2 1 3 4 3 3 3 3 3 3 4 4 4 5 4 4 3 5 3 2 2 1
5 3 3 6 9 6 4 7 9 8 7 14 8 8 9 9 10 10 5 3 13 15 15 14 14 13 12 12 12 12 12 13 10 11 11 11 11 9 8 7 7 6 6 6 5 5 5 5 4 4 3 3 4 4 3 2 1 1 2 2 3 1 2 1 2 0 0 0 2 2 2 2 2 2 3 6 7 4 4 3 3 3 3 3 4 5 5 5 4 3 3 2 3 3 3 1 1
9 8 4 7 7 4 4 5 6 2 9 5 6 10 9 9 8 5 8 13 14 18 17 15 15 14 14 15 13 12 10 5 10 9 10 10 10 10 9 8 8 9 6 6 6 6 5 4 5 4 2 3 3 4 3 3 1 2 3 3 3 2 3 3 2 2 1 1 2 3 3 2 2 2 2 3 3 8 4 3 4 4 4 3 4 4 4 4 3 3 2 3 2 3 3 1 1
8 9 6 5 9 4 8 3 3 4 1 2 4 5 8 10 6 6 13 19 16 19 23 21 20 16 13 13 13 12 9 12 10 10 11 10 11 11 10 9 7 9 8 8 6 5 5 5 4 3 3 4 3 3 4 4 1 1 2 2 3 2 0 2 3 2 2 3 3 3 3 3 3 2 1 0 1 4 3 4 4 4 4 4 4 5 5 5 4 4 3 4 3 2 3 1 2
6 2 0 4 5 3 6 7 1 2 1 1 4 7 8 5 4 6 13 17 17 20 22 21 20 20 17 17 18 15 15 14 14 14 14 12 11 10 9 9 8 7 7 6 5 6 5 5 4 4 3 3 4 3 3 3 3 2 3 3 2 3 2 2 3 4 4 4 4 3 3 3 3 2 3 2 2 3 1 1 2 2 3 3 4 5 5 6 7 5 4 4 4 5 2 2 3
3 2 2 2 4 5 2 5 6 1 3 3 3 3 6 5 4 2 6 5 10 11 11 14 14 18 17 13 12 17 19 16 14 12 11 13 13 13 13 11 10 9 8 7 7 7 5 6 5 4 4 4 3 2 4 3 3 3 3 3 3 3 4 5 4 4 3 1 1 3 3 2 2 2 2 2 2 3 2 2 3 3 3 3 3 4 5 6 5 5 4 4 4 4 5 3 2
2 4 5 5 3 3 5 4 6 5 5 5 5 0 3 6 5 8 2 4 4 8 14 16 15 9 12 14 14 11 12 15 19 18 17 16 14 11 10 11 11 10 9 8 7 6 6 6 4 4 3 2 3 3 3 3 3 5 4 5 4 4 3 2 3 1 2 3 2 3 3 3 3 3 2 2 2 1 2 2 1 2 2 3 4 2 3 3 3 4 3 4 4 5 6 6 5
2 5 1 0 1 2 4 7 7 4 2 6 2 3 4 4 2 5 3 4 8 5 6 10 11 12 12 13 13 14 14 10 7 11 12 12 11 12 11 11 12 11 9 8 6 6 6 5 4 4 4 3 3 3 3 4 4 3 4 4 4 4 4 0 0 1 1 1 0 3 3 3 3 3 3 3 3 2 1 1 1 1 1 2 2 3 4 4 4 4 5 4 4 5 4 5 6
2 2 1 4 5 4 2 3 4 2 3 4 5 1 1 2 5 5 4 3 3 6 8 13 12 14 14 13 13 14 14 15 15 15 14 14 15 16 16 14 12 12 10 8 7 6 7 6 5 4 3 3 2 2 3 3 5 4 4 4 3 4 3 2 1 1 0 0 3 3 3 3 4 4 5 5 5 3 1 1 0 1 2 2 2 3 3 3 4 4 4 4 5 4 5 7 7
4 1 5 1 2 2 1 5 2 1 2 6 7 3 2 1 6 4 1 0 5 4 8 14 17 17 15 14 14 16 16 16 16 15 15 15 14 12 10 11 9 11 10 10 9 7 7 6 5 4 4 3 2 2 3 3 3 4 4 4 4 2 3 1 1 2 3 3 3 3 3 4 4 4 5 5 5 5 4 4 4 2 3 3 2 4 3 3 3 3 5 6 5 5 3 3 5
2 1 2 2 1 1 1 1 3 2 3 4 5 1 1 4 5 7 5 4 6 6 3 10 14 15 14 14 15 13 10 11 12 15 16 13 12 11 8 7 8 9 8 8 8 7 7 6 5 5 4 3 3 3 3 3 3 3 4 3 4 2 2 3 3 3 3 3 4 3 3 4 5 5 5 5 5 5 5 4 5 5 4 3 3 3 3 4 4 3 3 2 2 3 3 3 3
2 3 1 4 3 3 2 3 1 3 5 3 5 2 2 2 5 1 5 3 3 5 1 3 10 16 17 15 14 13 14 13 12 9 8 10 9 9 8 10 8 6 7 9 8 8 7 7 6 6 5 4 3 4 3 3 2 3 3 3 3 2 2 3 3 3 4 4 3 3 3 3 3 5 4 5 4 4 3 3 3 3 3 3 3 3 3 3 3 3 3 3 2 2 3 3 3
4 2 2 5 6 6 5 4 3 1 4 5 4 4 0 1 3 5 2 2 3 2 4 5 10 13 13 12 12 14 13 12 10 10 10 9 9 8 8 9 9 9 8 9 8 7 7 7 7 7 4 4 4 3 3 3 3 2 2 3 3 2 3 3 3 2 1 2 1 2 1 3 3 4 3 4 5 5 4 4 3 3 3 4 4 3 3 3 3 3 3 4 4 3 3 3 3
7 3 6 3 4 5 3 6 5 2 3 2 2 9 4 1 5 3 7 4 6 4 5 4 10 11 11 11 13 12 11 10 11 10 9 10 11 13 11 10 9 10 11 10 10 8 8 7 8 8 6 5 5 4 4 3 3 3 3 3 3 2 3 3 3 2 1 1 1 1 1 1 2 3 4 3 4 5 4 5 5 5 5 4 4 4 4 5 5 4 4 3 4 4 5 5 4
11 6 2 2 1 1 2 3 1 4 5 6 3 4 1 3 4 4 1 5 4 3 6 6 5 14 15 13 10 10 11 11 10 10 11 12 12 11 12 12 11 10 10 10 9 9 7 7 7 8 7 5 4 4 4 4 4 4 3 3 3 3 3 3 2 1 0 1 1 0 1 1 1 1 2 3 4 3 3 3 3 3 3 4 4 4 4 3 3 4 4 4 4 5 4 5 5
7 3 1 3 5 2 4 3 4 6 6 4 5 1 3 1 3 3 2 0 5 3 7 4 2 7 11 13 12 11 11 11 12 12 12 12 11 12 12 12 11 11 11 10 9 9 8 8 8 9 8 6 5 5 4 5 5 4 4 4 3 3 3 3 2 2 1 1 1 1 2 2 1 3 3 3 3 3 3 3 3 3 3 4 4 4 4 3 3 3 3 3 4 3 4 5 5
1 3 1 4 3 2 4 4 2 2 1 4 1 3 3 2 3 4 3 1 3 8 9 15 16 4 9 9 11 12 12 12 11 11 11 12 12 12 11 11 10 10 11 10 10 9 9 9 8 8 9 7 6 5 5 5 5 4 4 4 4 3 2 2 1 1 0 1 1 1 1 2 3 3 4 3 4 3 3 3 3 4 4 4 4 3 3 3 3 3 4 3 4 2 3 4 4
7 8 4 4 6 1 1 3 0 1 2 5 2 4 5 5 5 3 7 1 1 8 10 13 13 10 3 9 11 12 11 11 11 12 12 11 10 11 12 12 12 11 11 11 11 11 11 10 9 9 8 6 6 6 6 5 5 4 4 4 4 3 3 3 3 1 1 1 1 1 1 2 3 3 4 3 4 4 4 4 4 4 4 4 3 3 3 3 3 3 3 3 4 3 3 4 3
1 4 6 8 1 4 2 3 2 1 2 4 1 3 4 2 6 5 6 5 5 3 9 6 4 4 7 5 8 8 9 11 12 13 14 15 15 15 12 12 13 14 14 13 13 10 10 10 11 10 9 9 8 7 7 5 5 5 5 4 4 4 4 3 2 2 2 1 0 1 1 2 3 3 3 4 3 4 4 4 4 5 5 4 4 3 3 3 3 3 3 3 3 3 4 4 3
4 2 3 3 2 4 4 2 3 3 3 3 3 2 3 4 6 4 2 4 8 4 5 9 6 3 0 3 3 5 8 8 8 10 10 10 11 12 13 14 13 13 13 14 12 11 9 8 9 10 11 10 9 7 6 5 5 5 5 5 5 4 4 3 3 3 3 2 1 2 2 2 3 3 3 3 3 3 4 4 4 5 5 6 5 5 4 4 4 4 4 4 4 4 4 4 3
4 4 5 4 1 3 1 1 1 2 4 1 5 1 2 3 2 3 2 2 4 2 5 4 5 2 6 7 7 8 7 7 9 9 11 12 12 13 14 14 14 14 13 12 12 10 11 10 10 8 7 7 7 7 6 6 6 5 5 4 3 4 4 4 4 3 3 2 2 2 2 3 3 3 3 2 2 3 4 5 6 7 7 8 8 8 8 8 8 6 5 5 5 5 4 3 3
5 5 3 3 2 2 0 1 2 1 2 2 2 3 2 2 4 5 7 8 3 2 6 2 6 4 2 4 7 6 8 9 8 10 10 10 10 10 11 11 12 11 9 10 10 12 11 9 9 9 10 9 9 8 7 7 6 6 5 5 4 4 4 3 3 3 3 3 1 1 2 3 2 3 2 3 3 5 5 4 5 6 6 7 8 8 8 8 8 7 6 5 3 4 4 5 4
2 3 1 1 1 3 1 6 2 1 1 1 2 5 6 4 3 2 7 8 8 10 5 3 2 2 6 4 2 5 6 8 11 11 11 10 9 9 9 9 7 8 9 11 11 10 10 9 8 8 9 9 9 8 7 7 6 6 5 4 4 4 4 3 4 3 3 2 2 2 3 2 3 2 3 3 4 3 3 4 4 4 5 5 6 7 7 7 7 6 6 5 6 6 5 4 3
Wind_Direction
271 279 331 128 96 95 47 18 36 307 57 256 260 308 255 247 242 298 265 287 290 252 221 219 241 60 127 173 177 157 14 292 268 133 184 226 128 101 106 107 111 112 123 133 135 134 133 134 137 135 136 134 135 131 128 126 126 126 126 127 124 122 120 118 117 117 118 117 119 120 120 119 120 121 122 122 125 128 131 132 131 130 132 129 123 120 120 121 118 114 113 113 115 117 114 117 116
303 347 18 87 251 67 337 130 105 336 30 326 261 190 252 274 283 250 262 259 239 252 216 188 47 37 129 146 224 112 32 17 67 115 137 121 90 92 105 110 117 117 116 117 119 122 129 133 138 140 137 137 138 131 129 127 127 128 128 129 125 123 122 121 121 122 123 122 123 125 125 124 123 125 126 126 127 131 136 133 136 134 136 132 125 122 122 122 119 118 117 117 117 115 112 114 110
344 25 11 30 32 86 253 45 246 240 157 266 267 224 277 301 268 260 249 255 251 254 319 305 64 322 50 70 46 96 242 344 65 68 73 65 87 68 94 99 104 109 113 109 101 93 86 117 132 136 136 140 139 134 134 133 131 129 130 129 127 126 125 125 125 125 126 127 127 130 131 130 130 129 129 128 129 138 137 134 138 136 138 135 128 125 123 122 124 124 121 120 120 115 114 113 108
103 59 98 54 328 11 57 21 95 152 213 224 274 253 241 249 257 262 271 276 253 213 89 14 69 343 80 81 82 73 63 44 15 85 89 17 81 116 111 114 113 112 115 116 109 105 106 122 126 132 138 140 138 133 134 137 131 133 132 133 131 130 130 129 128 128 130 131 132 135 136 136 136 134 133 134 140 139 136 141 141 139 138 136 130 126 123 127 129 127 124 124 124 119 117 117 112
68 30 103 79 108 345 100 206 185 120 229 217 235 264 234 236 251 262 276 270 255 174 130 128 82 34 79 83 345 66 252 26 44 49 92 84 107 113 110 104 105 112 123 130 129 129 129 129 131 137 138 137 129 114 105 105 122 128 132 135 134 135 134 132 132 132 133 134 136 138 141 140 140 139 137 139 134 134 138 138 143 141 140 137 132 126 126 129 134 130 128 126 126 121 120 120 115
50 55 348 98 157 205 40 330 311 255 228 198 240 254 256 252 252 265 297 281 83 341 95 66 122 179 49 35 6 65 307 74 89 65 89 59 95 99 93 91 94 90 92 113 127 133 137 139 133 123 120 111 99 103 90 72 52 73 124 136 134 137 136 136 135 136 136 139 140 145 146 146 144 144 143 142 142 138 131 144 145 145 143 136 134 132 129 135 138 129 125 128 126 122 119 121 114
10 33 0 24 343 64 162 184 239 236 252 203 232 247 256 262 257 278 268 305 13 61 61 105 110 99 93 195 57 19 345 11 69 5 45 109 92 86 98 96 97 94 95 103 120 128 138 126 120 119 115 115 127 135 136 137 138 121 71 43 126 134 135 135 136 139 140 141 146 147 148 150 148 150 147 147 144 142 147 145 146 141 140 138 134 136 142 140 135 130 130 128 128 124 119 118 110
85 105 275 110 247 74 253 228 242 212 260 193 258 268 269 272 282 335 308 168 316 84 65 79 82 87 40 337 113 320 8 34 81 96 90 87 85 82 86 118 107 107 114 114 113 117 126 127 131 124 124 126 132 144 132 134 130 131 124 113 7 25 126 132 134 139 143 146 149 149 151 150 155 156 153 150 148 148 146 146 143 138 136 132 139 148 145 139 134 131 128 126 127 128 128 122 111
359 87 307 73 312 316 269 238 249 268 286 291 274 261 267 269 272 290 291 252 102 83 107 116 100 86 237 70 63 280 18 9 37 55 46 49 53 45 58 64 114 124 120 115 113 115 131 145 131 133 135 140 147 147 140 135 130 134 131 129 141 274 248 137 142 144 145 150 152 148 151 153 158 160 155 152 150 147 146 144 139 135 135 143 151 148 141 135 134 132 131 132 132 129 126 124 116
7 104 272 161 140 224 236 274 327 244 244 253 256 262 262 259 258 237 218 57 100 103 105 89 102 117 137 90 90 356 15 4 360 46 30 43 56 64 63 72 97 121 118 113 109 117 138 139 134 136 137 143 150 144 145 142 139 139 132 137 150 163 236 162 155 147 148 154 154 149 155 156 161 160 158 154 152 150 146 143 139 139 145 150 148 141 138 136 133 134 136 135 133 131 134 139 156
325 13 173 329 232 243 247 266 242 281 263 320 285 259 251 244 220 282 193 120 118 107 114 104 72 117 93 59 55 290 9 10 15 43 26 50 70 78 84 67 77 89 106 85 68 57 108 137 144 142 139 143 143 145 147 144 139 134 134 140 149 157 167 208 154 151 153 159 155 154 162 167 164 164 162 157 154 150 143 142 140 144 147 149 147 145 141 137 139 143 142 140 141 145 152 163 182
1 133 15 187 228 197 244 215 261 273 317 299 274 286 296 213 164 189 70 90 121 138 160 146 144 124 80 108 349 330 3 18 29 22 30 47 70 76 84 74 64 59 63 66 53 38 41 56 62 145 139 142 144 144 142 140 140 141 143 147 151 156 164 184 157 153 158 159 157 161 169 174 171 167 164 158 157 149 145 144 148 151 154 155 152 151 148 146 149 153 151 149 151 160 168 178 197
162 143 207 129 241 194 251 270 267 297 317 274 241 293 314 88 123 145 110 96 68 87 74 122 152 145 107 114 176 24 8 31 50 41 51 63 66 65 72 71 63 57 55 58 55 58 52 44 48 45 152 145 145 149 150 144 141 141 142 143 142 155 171 173 158 158 160 160 158 160 172 176 177 169 166 162 160 151 149 149 154 160 153 150 156 152 154 153 156 158 160 160 164 174 184 194 212
149 174 131 244 270 246 261 260 284 318 286 259 270 287 322 75 76 122 98 74 52 59 73 119 115 105 107 123 147 247 218 147 106 71 70 72 76 80 81 73 66 61 56 53 57 53 52 60 59 52 72 10 85 148 150 146 144 142 140 140 145 158 174 165 159 160 164 165 165 171 175 182 179 173 168 166 160 154 154 152 160 159 151 157 158 159 159 159 159 164 165 167 176 191 198 208 227
212 160 176 207 272 265 217 248 334 305 281 258 288 347 12 13 110 61 99 101 29 10 103 73 149 89 199 146 187 204 188 134 135 115 87 85 90 83 73 71 66 62 56 60 57 60 65 75 54 65 69 44 19 351 67 144 138 135 137 142 146 156 170 164 161 162 168 168 171 179 182 184 183 177 172 172 163 158 159 158 161 154 166 170 171 168 162 165 165 170 171 173 187 205 216 222 245
198 149 163 236 256 221 274 47 228 221 253 234 290 341 61 350 28 68 25 97 114 33 69 55 20 89 144 149 160 157 144 138 147 142 126 115 87 71 66 61 65 56 54 52 55 50 52 67 64 76 73 58 18 350 356 119 134 134 139 145 146 153 161 167 162 169 171 171 177 183 186 186 182 178 180 172 169 163 161 160 168 161 170 172 181 177 173 171 175 180 181 182 197 212 232 259 258
211 144 263 239 265 242 255 160 339 311 285 305 323 40 71 56 351 52 65 79 77 58 64 37 79 82 125 128 124 127 137 145 147 158 143 88 69 62 58 51 62 59 53 45 49 49 60 56 53 50 60 62 48 14 347 29 141 140 142 145 148 155 161 163 166 169 172 177 180 187 186 169 146 129 182 167 177 162 168 167 171 169 172 177 160 191 168 177 182 192 192 200 209 224 253 278 289
146 212 198 250 235 261 193 223 206 305 320 293 6 103 80 50 31 100 69 70 83 79 83 75 67 67 91 104 113 127 137 145 166 157 148 93 75 79 66 44 52 59 50 41 30 41 52 57 61 63 59 55 50 30 33 282 203 150 152 147 147 152 152 158 163 152 165 153 186 165 50 91 58 23 100 229 130 171 180 173 176 181 177 176 167 191 184 177 199 207 212 218 227 239 256 330 307
159 209 171 244 198 240 153 23 324 294 260 259 276 84 119 148 240 100 98 107 105 90 83 103 92 88 94 107 121 127 136 157 168 190 129 98 84 85 84 68 61 56 45 34 37 39 47 66 63 67 69 59 49 32 20 25 83 338 1 180 150 144 141 145 134 133 94 106 84 100 125 81 87 78 98 98 58 32 26 333 192 186 191 184 182 192 192 193 206 215 219 222 227 237 265 297 295
230 180 250 247 225 267 319 251 267 269 227 323 10 2 73 302 128 77 119 125 112 117 119 83 110 120 121 123 123 121 129 136 154 149 106 99 93 94 90 76 72 71 68 47 54 38 53 58 68 76 67 51 66 69 41 19 354 353 345 284 112 100 103 106 97 91 79 89 111 116 128 118 93 80 91 95 67 67 20 1 353 221 198 195 196 205 209 208 214 220 221 223 215 230 208 259 274
266 148 225 238 219 273 262 214 266 272 185 149 253 337 37 320 205 111 136 98 98 131 148 145 149 144 142 142 140 138 133 139 130 104 104 103 98 93 114 121 116 123 114 81 51 50 48 60 68 67 67 62 76 65 60 39 35 33 359 307 124 113 101 74 83 88 93 84 103 122 131 129 121 121 114 82 69 42 334 333 341 357 334 266 212 185 206 228 220 235 233 215 176 201 215 240 252
338 219 223 231 253 256 261 245 239 255 117 98 30 43 320 291 3 10 130 132 165 166 177 138 139 142 145 148 143 137 143 120 112 105 107 116 129 123 110 95 94 119 137 90 80 48 40 57 78 82 75 66 76 91 76 66 57 46 30 53 48 49 90 97 101 110 107 114 113 126 127 115 123 120 135 131 97 141 184 219 266 294 310 270 234 185 188 204 215 229 243 237 219 207 220 230 234
247 275 266 244 232 225 261 341 210 203 106 106 37 234 312 28 320 334 75 142 150 141 137 135 137 143 136 130 135 127 123 122 118 114 122 118 111 109 111 108 97 77 80 89 86 58 53 52 54 55 67 65 55 82 86 73 84 94 106 90 83 77 69 81 81 112 131 133 132 142 137 133 123 125 125 132 142 163 226 250 254 265 246 206 279 195 213 206 206 218 225 233 235 235 237 235 235
213 250 244 250 210 231 251 250 262 190 123 143 179 85 69 9 33 56 83 97 128 135 133 135 133 128 134 130 133 135 134 129 122 131 134 124 115 119 130 118 95 97 84 92 82 74 65 56 57 70 52 57 49 22 84 82 100 83 79 87 96 105 102 102 112 128 137 139 140 135 128 123 125 132 149 155 159 164 187 131 299 275 264 230 170 167 221 245 233 226 235 235 227 231 238 239 236
218 244 248 249 212 222 237 215 218 171 143 179 88 76 277 136 18 85 112 128 132 129 130 126 124 121 125 128 134 133 131 128 125 133 116 99 101 97 73 82 81 86 83 81 96 95 74 61 70 71 74 69 43 45 48 24 23 53 60 82 86 112 102 114 138 153 144 138 127 134 138 133 126 142 166 172 146 151 165 213 250 260 264 228 189 219 201 231 262 244 233 241 237 238 236 242 237
213 225 230 245 242 243 218 163 199 181 169 119 97 237 275 246 224 111 141 131 129 129 130 130 126 127 134 136 137 138 134 132 133 123 115 102 95 86 70 80 84 78 95 100 107 101 87 71 74 72 67 61 61 62 49 57 47 55 44 54 74 93 105 115 102 76 67 111 134 151 150 141 140 145 161 166 157 166 165 187 222 249 256 260 198 220 212 216 224 234 246 245 244 239 238 237 229
239 227 224 230 259 323 235 186 229 205 161 157 140 196 239 273 160 79 136 137 137 135 135 134 130 130 136 137 131 137 133 137 137 131 105 94 87 93 92 83 86 97 99 105 114 117 121 106 90 87 81 82 77 83 83 76 78 88 86 78 42 33 68 93 87 87 67 57 149 138 154 144 127 146 156 158 151 135 127 162 195 217 237 241 214 228 215 218 228 229 219 226 233 240 240 234 226
289 240 128 252 321 308 270 273 248 170 214 190 131 214 221 350 110 194 142 150 147 139 142 143 136 136 141 139 140 146 134 137 136 126 123 120 124 119 109 119 112 106 108 109 113 116 122 115 97 91 95 92 86 74 63 73 67 69 71 66 72 62 31 5 59 70 86 123 168 170 177 138 127 127 143 133 139 140 164 189 236 187 205 229 225 233 229 222 221 231 239 238 236 234 244 241 228
286 46 319 297 342 342 323 297 247 145 299 177 149 58 351 179 201 182 147 147 150 143 144 145 139 139 141 142 142 150 144 143 140 127 129 130 132 123 125 130 125 120 111 107 110 118 126 120 101 86 83 89 95 90 86 81 76 73 70 68 73 84 102 268 83 70 66 321 283 266 258 170 146 130 166 159 160 156 159 228 278 264 224 270 275 234 231 237 239 241 247 240 234 227 239 249 239
299 22 104 359 9 331 277 268 297 119 247 132 103 283 262 248 239 138 150 145 146 144 145 146 143 145 145 146 151 149 146 138 145 138 135 133 134 136 126 130 118 125 124 92 84 82 94 104 113 118 100 96 95 106 107 99 99 92 85 76 85 96 191 159 92 68 81 49 43 325 342 348 46 145 168 181 168 186 170 186 255 280 312 301 279 282 262 237 240 236 246 270 257 205 217 237 234
334 265 59 222 27 269 270 171 241 261 217 150 130 206 273 259 259 202 154 152 151 149 153 149 143 142 145 151 152 149 153 153 150 139 134 131 132 134 131 123 127 128 119 122 123 117 83 88 101 92 114 104 96 94 101 108 102 102 97 100 97 101 100 82 71 64 59 57 60 218 195 241 93 306 351 153 173 186 186 189 202 226 229 228 222 232 230 246 234 225 202 198 202 215 218 204 183
322 38 301 332 177 276 288 250 202 214 288 143 123 216 244 233 246 208 165 158 148 148 152 146 145 145 151 154 154 154 152 155 144 136 137 134 135 140 140 141 137 139 146 152 140 123 122 113 94 89 95 113 114 103 89 94 106 110 115 115 113 112 107 99 74 73 101 172 171 203 52 53 220 202 211 295 229 209 188 197 220 202 209 232 244 230 217 221 229 248 265 237 317 280 260 197 164
349 156 278 292 280 265 354 282 209 207 208 188 170 214 305 292 242 210 179 153 151 143 147 149 150 150 152 159 160 151 138 145 138 144 143 136 136 142 147 145 149 152 151 152 146 135 129 134 134 143 155 141 125 118 108 109 115 121 126 120 120 116 121 122 129 154 103 126 159 53 25 356 294 204 176 201 264 251 231 215 222 209 198 205 215 221 223 234 222 216 252 250 182 261 310 306 316
307 20 225 219 242 297 289 285 278 216 195 229 208 191 219 228 258 180 152 143 140 143 153 154 153 154 159 161 160 155 151 150 156 157 151 141 141 144 145 145 146 144 147 152 152 144 147 141 148 159 164 159 136 138 150 145 132 116 109 115 115 110 114 100 127 143 143 154 152 136 163 270 306 280 224 218 224 239 237 225 238 240 228 232 243 246 248 256 259 247 267 261 218 207 251 277 294
244 319 333 300 250 227 244 284 269 167 207 213 196 212 233 248 230 153 145 153 145 151 157 159 156 156 162 165 164 161 158 159 163 162 152 144 139 143 139 136 142 142 144 154 149 146 138 148 156 163 155 153 148 154 153 118 103 92 93 94 81 43 14 21 102 84 132 132 137 155 30 196 213 228 195 122 298 266 249 253 251 258 241 240 240 252 266 245 226 212 228 276 281 244 241 237 238
227 229 233 263 288 276 255 251 263 216 198 213 177 199 214 231 218 190 145 157 148 154 151 152 156 161 166 168 167 167 165 164 163 155 151 146 143 143 139 136 141 143 141 148 155 148 147 151 151 154 164 166 153 156 124 108 113 142 133 84 67 118 284 150 72 41 96 98 90 119 104 18 4 2 1 339 274 268 259 252 242 254 251 242 261 267 279 291 292 295 284 276 287 289 249 252 263
260 295 259 242 252 273 262 254 249 232 186 199 183 194 206 209 214 213 119 123 131 144 157 162 167 166 169 170 174 172 169 168 164 157 155 152 147 144 141 137 138 136 140 144 152 154 151 158 154 173 188 154 152 148 135 141 138 106 63 95 141 194 166 101 81 43 141 328 111 99 79 78 96 27 4 354 327 303 289 283 277 266 251 246 242 245 243 251 248 244 265 251 255 293 307 222 248
252 260 250 282 275 257 254 280 339 267 171 222 188 198 213 217 219 227 136 143 160 161 165 170 171 173 173 172 172 173 167 144 147 156 158 153 149 146 143 142 142 140 154 149 156 158 151 146 162 182 165 147 157 162 150 136 195 191 154 156 137 128 100 88 83 56 46 24 40 43 45 59 75 97 94 154 258 308 312 314 307 293 287 268 255 261 267 261 260 251 248 275 214 232 263 241 203
268 248 244 265 264 239 279 266 334 333 356 271 213 194 230 236 213 209 159 164 179 173 168 175 171 176 173 175 165 162 162 162 163 165 158 159 154 151 149 149 156 151 155 157 159 141 135 141 150 167 170 151 161 153 134 147 173 160 125 183 137 114 108 109 101 59 59 43 41 31 34 27 32 43 84 304 160 191 301 306 298 288 284 284 295 295 292 278 258 252 243 247 269 232 246 226 183
219 151 57 269 244 336 318 296 304 325 191 227 222 210 252 270 261 195 193 172 183 183 175 168 172 170 174 175 170 168 168 163 167 172 168 162 159 158 153 154 155 149 149 149 157 151 147 141 154 162 169 158 153 166 146 156 142 134 103 128 110 109 109 74 58 37 33 33 16 3 23 25 29 12 354 358 357 352 340 283 289 285 274 250 240 260 266 274 273 263 253 249 249 265 234 266 207
285 224 220 239 290 277 204 266 313 319 299 297 113 236 310 302 280 266 255 230 160 178 169 169 181 175 171 162 166 167 168 167 164 170 172 165 164 169 166 160 152 154 161 162 167 162 153 156 159 166 167 163 166 147 135 138 100 70 65 53 60 51 31 37 38 9 8 355 16 8 333 338 346 341 332 338 342 335 342 336 325 308 299 283 231 226 229 233 235 251 244 249 243 257 270 264 275
305 264 217 245 295 319 322 333 12 19 330 285 182 7 271 270 262 236 245 200 226 169 163 180 177 165 160 167 172 179 175 167 167 175 177 173 166 162 161 156 156 157 160 168 164 156 144 149 146 156 147 141 139 144 148 123 126 129 105 102 89 74 69 49 73 56 353 344 311 303 332 337 342 336 319 307 306 301 328 344 349 350 350 349 346 317 299 315 287 287 295 277 271 255 252 250 248
29 283 38 173 165 80 7 13 50 7 313 287 340 221 263 323 245 246 231 191 213 177 165 170 168 171 172 171 171 174 176 173 182 174 169 163 164 163 167 166 164 156 161 155 151 146 142 143 152 153 156 158 154 139 125 109 94 96 116 133 138 136 134 232 224 203 158 313 335 353 329 331 336 342 327 322 297 291 313 345 5 36 60 35 23 36 26 15 357 353 347 345 310 300 284 259 262
262 244 123 60 48 49 347 54 96 202 245 293 32 86 221 307 293 251 257 192 193 225 143 163 171 173 182 177 173 176 179 174 175 181 179 174 169 171 174 173 164 160 151 148 145 143 144 150 150 159 158 147 152 123 89 104 114 110 104 105 114 120 126 134 108 37 267 343 27 358 354 348 351 1 355 352 350 341 305 286 39 49 20 357 35 50 43 19 17 8 13 12 4 357 326 309 294
240 262 109 50 109 142 111 85 83 321 47 308 329 337 83 283 270 323 19 346 317 244 178 175 176 180 178 176 179 184 180 176 176 177 178 175 173 175 172 168 161 146 149 151 152 149 145 146 152 153 136 136 145 133 112 108 119 124 127 118 105 143 148 130 63 25 30 10 28 356 13 359 7 11 19 12 2 2 4 3 359 5 4 352 38 34 23 21 23 12 7 5 3 349 348 323 321
281 206 135 134 100 34 117 109 52 349 36 290 291 332 119 276 280 326 342 57 11 331 244 185 178 177 174 180 187 182 173 175 187 187 175 168 167 169 170 153 153 154 147 141 138 139 142 146 155 148 146 141 152 130 118 113 105 103 99 115 122 114 80 54 58 39 19 18 38 13 8 19 12 12 1 8 1 1 2 8 23 18 7 10 34 17 9 1 352 355 353 348 336 335 321 327 315
261 38 44 345 30 41 346 70 103 35 295 253 253 300 119 282 266 345 56 312 240 297 282 205 195 184 183 180 174 170 178 181 183 182 171 161 160 156 152 158 155 142 143 143 143 146 148 153 155 150 163 153 147 142 122 134 110 105 126 138 142 127 105 88 60 30 24 34 33 6 14 12 15 359 0 352 349 351 348 8 15 6 7 14 8 5 349 331 321 321 319 322 316 305 303 307 311
73 38 52 5 340 355 29 344 31 232 277 264 277 342 91 151 297 285 209 248 276 278 345 196 186 189 182 177 181 180 175 175 172 168 162 154 149 155 158 157 158 155 148 150 150 149 154 157 154 154 160 160 163 150 135 140 146 159 147 154 151 162 134 115 106 77 87 93 101 44 356 27 358 344 350 344 336 338 343 345 355 8 10 5 358 341 331 328 310 303 304 304 302 299 288 283 283
31 44 32 64 278 31 330 8 345 231 220 261 15 25 14 255 207 255 304 345 340 314 20 189 182 183 187 187 179 173 171 167 169 166 158 163 167 167 168 164 161 163 165 161 160 157 157 158 160 157 172 173 172 163 168 169 159 171 176 165 174 164 129 126 120 88 169 73 111 99 52 30 333 358 322 328 316 325 334 342 346 356 351 345 338 342 329 328 324 317 307 300 293 295 294 293 289
332 354 78 58 349 44 268 269 239 302 288 269 357 355 239 248 284 224 64 344 336 310 44 41 209 183 186 185 174 167 166 166 164 164 172 178 174 171 171 170 169 170 166 164 162 161 162 161 164 162 178 176 174 174 178 171 189 193 191 177 193 143 142 130 152 115 235 250 175 204 255 270 281 269 276 290 279 294 314 308 318 322 322 322 324 321 315 310 319 318 316 318 312 301 304 300 290
309 327 242 245 150 176 263 179 217 225 223 272 298 8 232 92 248 211 148 241 21 24 11 60 92 230 192 176 166 161 161 166 171 173 178 177 175 173 173 172 173 172 169 166 167 165 162 164 166 170 174 185 176 183 175 176 190 204 202 191 191 160 151 145 180 194 207 230 241 285 316 308 299 286 271 274 284 282 279 283 285 295 300 306 310 311 309 315 319 329 322 318 321 315 312 314 308
304 280 3 72 285 129 253 206 153 242 301 340 320 208 182 170 242 272 186 94 50 35 27 19 11 360 160 156 166 172 173 171 166 171 176 179 178 176 172 174 174 174 172 171 171 167 169 172 172 175 177 179 182 179 184 182 194 203 200 191 202 177 168 148 172 270 265 199 241 201 267 268 271 279 289 286 284 277 279 281 289 285 288 293 294 290 294 302 314 329 329 334 329 327 336 331 316
305 355 3 331 275 129 39 352 330 62 30 260 211 324 305 308 341 341 343 263 56 85 52 34 10 3 152 171 171 176 176 168 169 176 177 176 176 181 178 174 175 178 175 177 179 177 175 170 171 177 181 177 181 184 185 188 196 188 210 204 188 177 160 161 196 219 240 240 197 207 212 258 279 294 291 292 294 308 300 291 290 291 291 288 290 288 284 289 304 315 319 320 318 319 325 315 310
40 37 298 313 295 127 114 250 333 41 238 262 290 226 301 351 293 321 5 26 3 62 103 89 60 351 163 183 182 184 179 177 174 176 179 180 182 181 183 183 179 180 179 178 180 178 177 174 175 176 179 180 186 182 188 189 185 193 204 206 195 187 183 195 173 185 206 154 50 264 263 320 302 304 299 289 305 305 309 306 307 305 303 302 289 279 270 275 279 277 273 278 271 284 298 303 305
122 174 307 70 321 6 321 84 304 304 277 275 306 266 265 178 250 335 342 24 350 26 68 65 9 8 158 155 174 189 181 169 174 182 181 183 183 185 185 188 187 182 182 180 177 173 172 176 177 179 183 183 179 181 184 190 186 192 194 196 193 199 197 185 184 177 152 134 194 242 267 275 318 290 292 307 315 317 313 313 316 314 314 309 307 298 294 290 275 272 268 269 272 275 283 291 295
138 83 47 15 46 252 356 213 228 124 272 32 291 10 240 235 246 294 301 321 302 325 56 79 24 345 145 155 171 173 180 183 180 182 189 190 191 189 188 187 186 185 183 181 175 172 176 178 176 180 177 173 173 181 184 190 202 196 202 197 199 189 196 173 191 147 144 172 219 252 293 314 271 270 274 290 292 292 324 346 350 355 357 357 352 345 342 332 323 304 294 303 311 320 317 313 325
341 35 45 17 322 267 238 251 178 199 228 210 237 305 285 318 326 6 13 12 324 334 96 8 74 355 51 159 178 184 182 180 186 190 194 197 195 194 194 194 192 186 181 173 175 179 180 175 178 177 176 178 180 185 179 196 194 205 195 192 191 195 194 188 163 150 169 218 259 275 256 239 259 276 264 293 336 7 22 28 28 26 21 15 11 8 6 2 1 353 347 342 352 15 13 8 2
113 115 54 218 67 48 44 288 355 47 94 235 30 274 279 286 329 0 19 4 11 8 354 214 253 144 108 94 171 187 196 199 193 194 195 193 194 193 194 191 188 182 182 183 181 177 175 178 176 178 179 182 181 185 186 196 198 195 191 184 190 194 181 167 166 190 215 244 267 261 235 234 226 283 19 36 72 72 57 39 33 25 24 21 14 12 7 5 359 358 1 10 21 25 27 15 7